{"data":{"norad_id":64085,"intl_designator":"2025-107X","name":"STARLINK-34140","alt_names":[],"object_type":"PAYLOAD","status":"ACTIVE","operator":null,"country":"US","launch_date":"2025-05-21","launch_site_code":"AFETR","launch_vehicle":null,"mission":null,"orbit_class":"UNKNOWN","rcs_meters":null,"size_class":null,"mass_kg":null,"dimensions":null,"purposes":["comms"],"wikipedia_slug":null,"has_3d_model":false,"image_url":null,"decayed_at":null,"tle_current":{"epoch":"2026-05-25T00:28:41.023200Z","epoch_age_seconds":73005,"freshness":"FRESH","line1":"1 64085U 25107X   26145.01991925  .00019641  00000+0  72081-3 0  9993","line2":"2 64085  43.0047 130.5199 0002751 290.3731  69.6825 15.27603757 57776","mean_motion":15.27603757,"eccentricity":0.0002751,"inclination_deg":43.0047,"raan_deg":130.5199,"arg_perigee_deg":290.3731,"mean_anomaly_deg":69.6825,"bstar":0.00072081,"rev_number":5777,"period_min":94.265282695295,"perigee_km":481.09046723156,"apogee_km":484.86545268253,"semimajor_km":6861.114959957,"source":"CELESTRAK","updated_at":"2026-05-25T13:38:20.262598Z"}}}